This is the latest recevied weather packets stored in our database for station/object OE7AOT-10. If no packets are shown the sender has not sent any weather packets the latest 10 day(s).
| Time | Temp. | Humidity | Pressure | Rain* | Wind** | Luminosity | Snow |
|---|---|---|---|---|---|---|---|
| 1777836017 | 24.44° C | 31% | 1022.9 hPa | - | - | - | - |
| 1777835116 | 24.44° C | 31% | 1022.8 hPa | - | - | - | - |
| 1777834216 | 25° C | 32% | 1022.7 hPa | - | - | - | - |
| 1777833316 | 25° C | 31% | 1022.4 hPa | - | - | - | - |
| 1777832416 | 25° C | 30% | 1022.3 hPa | - | - | - | - |
| 1777831516 | 25° C | 28% | 1022 hPa | - | - | - | - |
| 1777830616 | 25° C | 28% | 1022 hPa | - | - | - | - |
| 1777829716 | 24.44° C | 28% | 1021.9 hPa | - | - | - | - |
| 1777828815 | 23.89° C | 31% | 1021.9 hPa | - | - | - | - |
| 1777827915 | 23.89° C | 30% | 1021.8 hPa | - | - | - | - |
| 1777827015 | 23.89° C | 31% | 1021.6 hPa | - | - | - | - |
| 1777826115 | 23.33° C | 31% | 1021.5 hPa | - | - | - | - |
| 1777825215 | 23.89° C | 30% | 1021.5 hPa | - | - | - | - |
| 1777824314 | 23.89° C | 30% | 1021.5 hPa | - | - | - | - |
| 1777823414 | 23.89° C | 30% | 1021.5 hPa | - | - | - | - |
| 1777822514 | 23.89° C | 29% | 1021.6 hPa | - | - | - | - |
| 1777821614 | 23.89° C | 29% | 1021.6 hPa | - | - | - | - |
| 1777820714 | 23.89° C | 29% | 1021.7 hPa | - | - | - | - |
| 1777819814 | 23.89° C | 28% | 1021.7 hPa | - | - | - | - |
| 1777818913 | 23.89° C | 27% | 1021.8 hPa | - | - | - | - |
| 1777818012 | 23.89° C | 28% | 1021.9 hPa | - | - | - | - |
| 1777817111 | 23.89° C | 28% | 1022 hPa | - | - | - | - |
| 1777816211 | 23.89° C | 28% | 1022.1 hPa | - | - | - | - |
| 1777815311 | 23.89° C | 28% | 1022.3 hPa | - | - | - | - |
| 1777814411 | 23.89° C | 28% | 1022.3 hPa | - | - | - | - |
* Rain since midnight (hover to see other rain measurements)
** Current wind speed in m/s (hover to see current wind gust speed)